This demonstration page uses our WeatherBlox Daily Observations layout. Learn more.

39.29038, -76.61219

Hourly Observations for July 17, 2015

Temp ( °F °C ) Dew Point ( °F °C ) Humidity (%) Winds ( mph kmh ) Pressure ( in mb ) Visibility ( mi km ) Precip ( " mm )
12:54 am 00:54 undefined 73 22.8 59 15 62 62 undefined N/A 30.06 1018 N/A 0 0
1:54 am 01:54 Cloudy 54 12.2 47 8.3 77 77 undefined N/A 29.39 995 N/A 0 0
2:54 am 02:54 Cloudy 62 16.7 57 13.9 84 84 undefined N/A 29.92 1013 N/A 0 0
3:54 am 03:54 Mostly Clear 78 25.5 70 21.1 77 77 undefined N/A 30.91 1047 N/A 0 0
4:54 am 04:54 Mostly Cloudy 70 21.1 65 18.3 84 84 undefined N/A 30.08 1019 N/A 0 0
5:54 am 05:54 Mostly Sunny 70 21.1 65 18.3 84 84 undefined N/A 30.09 1019 N/A 0 0
6:54 am 06:54 Sunny 64 18 55 13 73 73 undefined N/A 29.79 1009 N/A 0 0
7:54 am 07:54 Cloudy 75 23.9 34 1.1 22 22 undefined N/A 29.81 1010 N/A 0 0
8:54 am 08:54 Mostly Sunny 54 12.2 36 2.2 51 51 undefined N/A 29.97 1015 N/A 0 0
9:54 am 09:54 Mostly Cloudy 59 15.1 51 10.7 75 75 undefined N/A 29.96 1015 N/A 0 0
10:54 am 10:54 undefined 80 26.7 62 16.7 54 54 undefined N/A 30.09 1019 N/A 0 0
11:54 am 11:54 Mostly Cloudy 79 26.1 62 16.7 56 56 undefined N/A 30.08 1019 N/A 0 0
12:54 pm 12:54 Mostly Cloudy 78 25.6 63 17.2 60 60 undefined N/A 30.08 1019 N/A 0 0
1:54 pm 13:54 undefined 80 26.7 63 17.2 56 56 undefined N/A 30.06 1018 N/A 0 0
2:54 pm 14:54 Mostly Sunny 80 26.7 64 17.8 58 58 undefined N/A 30.05 1018 N/A 0 0
3:54 pm 15:54 undefined 80 26.7 64 17.8 58 58 undefined N/A 30.04 1017 N/A 0 0
4:54 pm 16:54 undefined 81 27.2 64 17.8 57 57 undefined N/A 30.02 1017 N/A 0 0
5:54 pm 17:54 Partly Cloudy 82 28 69 20.7 65 65 undefined N/A 29.99 1016 N/A 0 0
6:54 pm 18:54 undefined 80 26.7 66 18.9 62 62 undefined N/A 29.99 1016 N/A 0 0
7:54 pm 19:54 undefined 80 26.7 67 19.4 64 64 undefined N/A 29.98 1015 N/A 0 0
8:54 pm 20:54 undefined 79 26.1 67 19.4 67 67 undefined N/A 30 1016 N/A 0 0
9:54 pm 21:54 Mostly Cloudy 76 24.4 58 14.4 54 54 undefined N/A 29.81 1010 N/A 0 0
10:54 pm 22:54 undefined 79 26.1 69 20.6 72 72 undefined N/A 30.01 1016 N/A 0 0
11:54 pm 23:54 Mostly Clear 79 26.1 69 20.6 72 72 undefined N/A 30.01 1016 N/A 0 0

Powered by AerisWeather